Stations météo

Publicité
Montelimar, France (7577): Température de l'air & dewpoint: 10.08.2017 17:00:00 - 16.08.2017 17:00:00 (CEST)Montelimar, France (7577): Température de l'air 5cm: 10.08.2017 17:00:00 - 16.08.2017 17:00:00 (CEST)Montelimar, France (7577): Température de l'air -20cm & Température de l'air -100cm: 10.08.2017 17:00:00 - 16.08.2017 17:00:00 (CEST)Montelimar, France (7577): Vitesse du vent & gusts: 10.08.2017 17:00:00 - 16.08.2017 17:00:00 (CEST)Montelimar, France (7577): Direction du vent: 10.08.2017 17:00:00 - 16.08.2017 17:00:00 (CEST)Montelimar, France (7577): reduced air pressure: 10.08.2017 17:00:00 - 16.08.2017 17:00:00 (CEST)Montelimar, France (7577): visibility: 10.08.2017 17:00:00 - 16.08.2017 17:00:00 (CEST)Montelimar, France (7577): Ensoleillement: 10.08.2017 17:00:00 - 16.08.2017 17:00:00 (CEST)Montelimar, France (7577): Quantités de précipitations: 10.08.2017 17:00:00 - 16.08.2017 17:00:00 (CEST)
Date & Time tt [°C] td [°C] tt 5cm [°C] tt -20cm [°C] tt -100cm [°C] ff [km/h] ff [knt] fx [km/h] fx [knt] dd ppp [hPa] vv [km] sd [min] rr [mm]
16.08.2017 17:00:00 28,0 15,6 30,1 26,2 23,7 14 8 26 14 NNE 1017,5 20 5 0,0
16.08.2017 16:00:00 28,0 16,9 25,0 26,0 23,7 9 5 21 11 NE 1017,6 20 0 0,0
16.08.2017 15:00:00 26,5 17,0 26,7 25,9 23,7 9 5 16 9 NNE 1019,0 20 0 0,0
16.08.2017 14:00:00 27,3 16,3 28,2 25,8 23,7 10 6 21 12 NE 1018,4 20 0 0,0
16.08.2017 13:00:00 28,9 16,1 32,0 25,7 23,7 16 9 27 15 NNE 1018,5 20 58 0,0
16.08.2017 12:00:00 27,0 16,6 30,9 25,7 23,7 18 10 32 17 NNE 1019,0 20 60 0,0
16.08.2017 11:00:00 25,7 16,8 28,8 25,8 23,7 16 8 33 18 NNE 1019,2 20 60 0,0
16.08.2017 10:00:00 24,0 16,8 25,6 25,9 23,7 19 10 32 18 NNE 1019,4 20 60 0,0
16.08.2017 09:00:00 22,5 16,3 23,8 26,0 23,7 18 10 29 15 NNE 1019,7 20 60 0,0
16.08.2017 08:00:00 21,0 16,4 19,7 26,2 23,6 7 4 22 12 NE 1020,0 20 43 0,0
16.08.2017 07:00:00 20,0 16,8 19,4 26,4 23,7 11 6 24 13 NNE 1019,6 20 0 0,0
16.08.2017 06:00:00 20,4 16,8 19,5 26,6 23,6 14 8 28 15 NNE 1019,3 20 0 0,0
16.08.2017 05:00:00 20,2 17,2 17,5 26,7 23,6 12 7 20 11 NNE 1019,4 20 0 0,0
16.08.2017 04:00:00 20,5 16,7 18,2 26,8 23,6 3 2 15 8 NNW 1019,4 20 0 0,0
16.08.2017 03:00:00 21,8 17,2 21,1 26,9 23,6 8 5 21 11 NNE 1019,0 20 0 0,0
16.08.2017 02:00:00 21,9 16,6 20,2 27,1 23,6 9 5 16 9 N 1019,6 20 0 0,0
16.08.2017 01:00:00 23,1 16,6 22,6 27,1 23,6 6 3 19 10 N 1020,5 20 0 0,0
16.08.2017 00:00:00 23,6 14,9 22,4 27,2 23,6 6 4 17 9 NNW 1021,1 20 0 0,0
15.08.2017 23:00:00 24,0 12,6 22,6 27,2 23,6 3 2 10 6 ENE 1020,7 20 0 0,0
15.08.2017 22:00:00 26,0 10,2 24,1 27,1 23,6 2 1 16 9 S 1019,7 20 0 0,0
15.08.2017 21:00:00 27,5 10,7 26,8 27,0 23,6 6 3 32 17 SW 1018,8 20 0 0,0
15.08.2017 20:00:00 29,1 11,6 29,2 26,8 23,6 15 8 31 17 S 1017,9 20 2 0,0
15.08.2017 19:00:00 30,8 9,6 31,4 26,5 23,6 10 5 18 10 S 1017,6 20 12 0,0
15.08.2017 18:00:00 31,3 11,1 32,4 26,2 23,6 16 9 31 17 S 1017,5 20 18 0,0
15.08.2017 17:00:00 31,0 10,9 33,0 25,8 23,5 14 8 36 19 S 1017,8 20 20 0,0
15.08.2017 16:00:00 31,9 8,2 33,5 25,5 23,5 20 11 37 20 SSW 1017,9 20 56 0,0
15.08.2017 15:00:00 31,1 9,9 36,0 25,3 23,6 17 9 29 16 S 1018,1 20 60 0,0
15.08.2017 14:00:00 29,8 10,8 31,6 25,2 23,5 17 9 29 16 S 1018,6 20 56 0,0
15.08.2017 13:00:00 27,5 13,1 29,1 25,1 23,6 13 7 26 14 SW 1019,4 20 39 0,0
15.08.2017 12:00:00 25,3 13,2 27,7 25,1 23,6 10 5 19 10 SSW 1020,1 20 23 0,0
15.08.2017 11:00:00 23,4 15,4 24,8 25,2 23,6 8 4 18 10 S 1020,9 20 19 0,0
15.08.2017 10:00:00 21,4 16,4 25,1 25,4 23,5 7 4 15 8 S 1021,2 20 56 0,0
15.08.2017 09:00:00 19,0 14,3 20,8 25,6 23,5 0 0 5 3 N 1021,3 20 60 0,0
15.08.2017 08:00:00 16,6 13,5 13,8 25,8 23,5 0 0 3 2 N 1021,1 20 41 0,0
15.08.2017 07:00:00 14,8 12,1 13,2 26,1 23,5 0 0 0 0 N 1020,6 20 0 0,0
15.08.2017 06:00:00 15,2 12,0 13,7 26,3 23,5 0 0 3 2 N 1019,9 20 0 0,0
15.08.2017 05:00:00 15,7 12,3 14,3 26,5 23,5 0 0 4 2 N 1019,9 20 0 0,0
15.08.2017 04:00:00 17,0 12,1 14,9 26,7 23,5 0 0 6 4 N 1020,2 20 0 0,0
15.08.2017 03:00:00 18,9 11,5 17,6 26,9 23,5 5 3 9 5 SSE 1020,1 20 0 0,0
15.08.2017 02:00:00 19,5 11,5 18,4 27,0 23,5 3 2 10 5 SSW 1020,2 20 0 0,0
15.08.2017 01:00:00 20,5 11,4 19,7 27,1 23,5 6 4 13 7 S 1020,2 20 0 0,0
15.08.2017 00:00:00 21,3 11,6 20,4 27,2 23,5 6 4 17 9 SSW 1020,3 20 0 0,0
14.08.2017 23:00:00 22,9 10,7 22,2 27,2 23,5 9 5 23 12 S 1019,8 20 0 0,0
14.08.2017 22:00:00 24,3 11,3 23,6 27,1 23,5 10 6 26 14 S 1019,4 20 0 0,0
14.08.2017 21:00:00 26,0 11,7 25,5 26,9 23,5 15 8 33 18 S 1018,3 20 6 0,0
14.08.2017 20:00:00 28,3 12,2 28,7 26,6 23,5 14 8 37 20 S 1017,2 20 26 0,0
14.08.2017 19:00:00 30,5 9,9 33,4 26,2 23,5 19 11 37 20 S 1016,7 20 60 0,0
14.08.2017 18:00:00 31,7 9,3 35,8 25,9 23,5 18 10 36 20 S 1016,5 20 60 0,0
14.08.2017 17:00:00 32,2 9,7 36,9 25,5 23,5 20 11 36 19 S 1016,3 20 60 0,0
14.08.2017 16:00:00 32,4 9,8 36,9 25,1 23,5 16 9 38 21 S 1016,4 20 60 0,0
14.08.2017 15:00:00 31,9 8,8 36,1 24,7 23,5 16 9 34 18 SSW 1017,0 20 60 0,0
14.08.2017 14:00:00 30,6 8,9 35,2 24,4 23,5 20 11 33 18 S 1017,7 20 60 0,0
14.08.2017 13:00:00 29,1 10,7 33,8 24,3 23,5 18 10 34 18 S 1018,4 20 60 0,0
14.08.2017 12:00:00 26,9 12,2 31,9 24,3 23,5 11 6 18 10 SSW 1018,8 20 60 0,0
14.08.2017 11:00:00 24,8 14,9 29,2 24,3 23,5 4 2 9 5 WNW 1019,2 20 60 0,0
14.08.2017 10:00:00 22,6 15,2 26,2 24,4 23,5 6 3 14 8 N 1019,5 20 60 0,0
14.08.2017 09:00:00 20,8 14,7 23,4 24,6 23,5 7 4 12 6 NNE 1019,5 20 60 0,0
14.08.2017 08:00:00 19,0 14,7 16,9 24,8 23,5 5 3 11 6 NNE 1019,2 20 54 0,0
14.08.2017 07:00:00 17,4 14,3 16,3 25,0 23,5 6 3 10 6 NNE 1018,9 20 0 0,0
14.08.2017 06:00:00 17,8 14,1 16,1 25,1 23,5 8 4 11 6 NNE 1018,5 20 0 0,0
14.08.2017 05:00:00 18,4 14,1 16,4 25,3 23,5 6 3 13 7 NNE 1018,4 20 0 0,0
14.08.2017 04:00:00 18,7 13,8 16,9 25,4 23,5 4 2 11 6 ENE 1018,4 20 0 0,0
14.08.2017 03:00:00 18,9 14,0 17,1 25,5 23,5 3 2 9 5 NNE 1018,4 20 0 0,0
14.08.2017 02:00:00 19,9 13,8 18,9 25,7 23,5 8 4 16 8 NNE 1018,4 20 0 0,0
14.08.2017 01:00:00 21,2 14,4 19,4 25,7 23,6 9 5 16 9 NNE 1018,4 20 0 0,0
14.08.2017 00:00:00 21,6 13,5 20,9 25,8 23,6 9 5 22 12 NE 1018,4 20 0 0,0
13.08.2017 23:00:00 23,3 12,9 22,5 25,8 23,6 11 6 28 15 NNE 1018,1 20 0 0,0
13.08.2017 22:00:00 24,1 12,7 23,4 25,7 23,6 12 7 29 15 N 1018,0 20 0 0,0
13.08.2017 21:00:00 25,2 13,1 24,7 25,5 23,6 17 9 33 18 N 1017,2 20 7 0,0
13.08.2017 20:00:00 26,0 13,1 26,1 25,3 23,6 15 8 42 23 N 1016,9 20 19 0,0
13.08.2017 19:00:00 26,8 13,5 29,1 25,0 23,6 22 12 45 25 NNE 1016,6 20 60 0,0
13.08.2017 18:00:00 27,0 13,4 29,9 24,7 23,6 20 11 39 21 NNE 1017,0 20 60 0,0
13.08.2017 17:00:00 27,6 13,2 32,3 24,3 23,6 24 13 38 21 NNE 1017,2 20 60 0,0
13.08.2017 16:00:00 27,4 13,3 32,3 24,1 23,7 24 13 42 23 NNE 1017,5 20 60 0,0
13.08.2017 15:00:00 26,7 12,7 31,4 23,8 23,6 26 14 44 24 NNE 1017,9 20 60 0,0
13.08.2017 14:00:00 26,2 12,6 30,6 23,7 23,6 28 15 46 25 NNE 1018,5 20 60 0,0
13.08.2017 13:00:00 25,3 13,2 28,1 23,6 23,6 25 14 47 26 NNE 1018,8 20 60 0,0
13.08.2017 12:00:00 24,0 12,9 25,6 23,7 23,6 26 14 50 27 NNE 1019,2 20 35 0,0
13.08.2017 11:00:00 22,6 13,4 23,2 23,7 23,6 22 12 42 23 N 1019,3 20 6 0,0
13.08.2017 10:00:00 21,2 12,6 23,0 23,8 23,6 21 12 39 21 NNE 1019,4 20 16 0,0
13.08.2017 09:00:00 19,8 12,1 19,4 24,0 23,7 23 12 36 20 NNE 1019,3 20 13 0,0
13.08.2017 08:00:00 18,7 11,3 18,5 24,1 23,7 21 12 34 18 NNE 1019,2 20 0 0,0
13.08.2017 07:00:00 18,6 10,9 18,3 24,3 23,7 20 11 34 18 NE 1019,1 20 1 0,0
13.08.2017 06:00:00 18,6 10,7 18,4 24,4 23,7 18 10 29 16 NE 1018,9 20 0 0,0
13.08.2017 05:00:00 19,3 10,6 19,0 24,5 23,7 18 10 32 17 NNE 1019,0 20 0 0,0
13.08.2017 04:00:00 19,9 10,0 19,5 24,7 23,7 16 9 32 17 NNE 1019,2 20 0 0,0
13.08.2017 03:00:00 21,0 9,9 20,2 24,8 23,7 15 8 32 17 N 1019,3 20 0 0,0
13.08.2017 02:00:00 21,3 9,5 20,8 24,9 23,8 16 8 34 19 N 1019,5 20 0 0,0
13.08.2017 01:00:00 21,7 9,2 21,2 25,0 23,8 19 11 42 23 N 1019,4 20 0 0,0
13.08.2017 00:00:00 21,7 9,6 20,9 25,0 23,8 17 9 35 19 N 1019,4 20 0 0,0
12.08.2017 23:00:00 22,2 8,7 21,5 25,0 23,8 12 7 30 16 NNW 1019,6 20 0 0,0
12.08.2017 22:00:00 22,1 9,3 21,2 24,9 23,8 13 7 35 19 NE 1019,2 20 0 0,0
12.08.2017 21:00:00 23,4 9,0 22,8 24,8 23,8 16 9 45 24 NNE 1018,4 20 13 0,0
12.08.2017 20:00:00 24,4 8,8 25,9 24,6 23,8 23 13 42 23 N 1018,2 20 39 0,0
12.08.2017 19:00:00 25,1 8,6 28,0 24,3 23,8 28 15 46 25 NNE 1018,3 20 60 0,0
12.08.2017 18:00:00 25,6 9,0 29,8 24,0 23,9 27 15 49 26 NNE 1018,2 20 60 0,0
12.08.2017 17:00:00 25,7 6,8 30,6 23,6 23,9 28 15 49 26 NNE 1018,6 20 60 0,0
12.08.2017 16:00:00 25,6 8,1 30,3 23,3 23,9 27 15 50 27 NNE 1019,0 20 60 0,0
12.08.2017 15:00:00 25,1 6,8 29,7 23,0 23,9 30 16 48 26 NNE 1019,5 20 60 0,0
12.08.2017 14:00:00 24,3 9,1 28,7 22,9 23,9 28 15 46 25 NNE 1019,9 20 60 0,0
12.08.2017 13:00:00 23,4 10,1 26,9 22,8 23,9 27 15 49 27 NNE 1020,5 20 60 0,0
12.08.2017 12:00:00 22,2 10,7 25,4 22,8 24,0 30 16 48 26 NNE 1020,8 20 58 0,0
12.08.2017 11:00:00 20,9 11,5 23,6 22,9 24,0 23 12 41 22 NNE 1021,0 20 60 0,0
12.08.2017 10:00:00 19,0 11,8 21,5 23,1 24,0 25 14 41 22 NNE 1020,8 20 60 0,0
12.08.2017 09:00:00 17,4 11,4 15,5 23,3 24,0 21 12 36 19 NNE 1021,0 20 43 0,0
12.08.2017 08:00:00 15,3 11,1 15,2 23,4 24,0 13 7 31 17 NNE 1020,9 20 29 0,0
12.08.2017 07:00:00 15,4 11,0 14,2 23,6 24,0 12 6 34 18 NNE 1020,5 20 5 0,0
12.08.2017 06:00:00 14,8 10,4 14,2 23,9 24,0 14 8 34 18 NNE 1020,4 20 0 0,0
12.08.2017 05:00:00 14,9 10,7 14,3 24,0 24,0 11 6 25 14 NNE 1020,6 20 0 0,0
12.08.2017 04:00:00 15,2 10,4 13,6 24,2 24,0 10 6 18 10 N 1020,8 20 0 0,0
12.08.2017 03:00:00 15,9 10,6 15,1 24,4 24,1 11 6 24 13 N 1020,8 20 0 0,0
12.08.2017 02:00:00 15,9 10,4 15,2 24,6 24,1 11 6 17 9 NNE 1020,8 20 0 0,0
12.08.2017 01:00:00 16,9 10,0 16,0 24,7 24,1 10 5 18 10 N 1020,9 20 0 0,0
12.08.2017 00:00:00 17,4 10,0 16,9 24,8 24,1 10 5 25 14 N 1021,1 20 0 0,0
11.08.2017 23:00:00 17,9 10,5 17,4 24,8 24,1 19 11 40 22 N 1021,1 20 0 0,0
11.08.2017 22:00:00 18,0 9,6 17,5 24,8 24,1 16 9 33 18 NNE 1020,5 20 0 0,0
11.08.2017 21:00:00 18,7 9,7 18,3 24,8 24,1 16 8 29 16 N 1019,5 20 1 0,0
11.08.2017 20:00:00 19,9 9,2 20,7 24,7 24,2 16 8 34 18 NNE 1019,0 20 32 0,0
11.08.2017 19:00:00 20,5 8,2 20,9 24,4 24,2 22 12 40 22 NNE 1018,8 20 34 0,0
11.08.2017 18:00:00 20,8 8,1 24,9 24,2 24,1 25 13 44 24 NNE 1018,9 20 60 0,0
11.08.2017 17:00:00 20,6 8,2 25,8 24,0 24,2 26 14 48 26 NNE 1019,0 20 60 0,0
11.08.2017 16:00:00 20,7 9,3 22,7 23,8 24,2 26 14 44 24 NNE 1019,1 20 43 0,0
11.08.2017 15:00:00 21,2 9,1 21,7 23,6 24,2 22 12 42 23 NNE 1019,1 20 32 0,0
11.08.2017 14:00:00 20,1 7,8 23,2 23,5 24,2 19 11 32 18 NNE 1019,1 20 35 0,0
11.08.2017 13:00:00 20,8 8,8 21,6 23,5 24,2 18 10 32 17 NNE 1018,9 20 49 0,0
11.08.2017 12:00:00 18,4 9,5 20,0 23,6 24,3 16 9 31 17 NNE 1019,4 20 6 0,0
11.08.2017 11:00:00 18,4 9,2 20,5 23,7 24,3 19 10 32 17 NNE 1019,2 20 50 0,0
11.08.2017 10:00:00 18,1 9,7 18,9 23,8 24,3 16 8 28 15 NE 1019,0 20 58 0,0
11.08.2017 09:00:00 16,8 9,9 16,2 24,0 24,3 8 4 23 13 NNE 1019,0 20 36 0,0
11.08.2017 08:00:00 15,5 10,3 14,7 24,2 24,3 11 6 22 12 NNE 1018,8 20 41 0,0
11.08.2017 07:00:00 14,6 10,4 13,9 24,4 24,3 5 3 24 13 NNW 1018,7 20 0 0,0
11.08.2017 06:00:00 14,8 10,6 14,3 24,6 24,3 10 6 31 17 NNE 1018,1 20 0 0,0
11.08.2017 05:00:00 15,5 10,3 15,1 24,8 24,3 19 11 38 20 NNE 1017,7 20 0 0,0
11.08.2017 04:00:00 17,9 7,6 17,6 24,9 24,4 16 9 33 18 N 1017,8 20 0 0,0
11.08.2017 03:00:00 17,8 7,8 17,1 25,1 24,4 8 4 16 9 NNW 1017,9 20 0 0,0
11.08.2017 02:00:00 17,4 8,3 17,1 25,3 24,4 2 1 23 13 N 1018,1 20 0 0,0
11.08.2017 01:00:00 17,6 8,4 16,8 25,4 24,4 13 7 22 12 NNE 1017,9 20 0 0,0
11.08.2017 00:00:00 17,6 8,4 15,9 25,5 24,4 6 4 13 7 NE 1017,6 20 0 0,0
10.08.2017 23:00:00 18,3 8,3 17,1 25,5 24,4 5 3 18 10 ENE 1017,6 20 0 0,0
10.08.2017 22:00:00 19,6 7,7 18,6 25,5 24,5 8 5 19 10 NNW 1017,3 20 0 0,0
10.08.2017 21:00:00 21,1 7,3 20,4 25,4 24,5 8 4 26 14 NNW 1017,1 20 0 0,0
10.08.2017 20:00:00 22,2 7,6 22,8 25,2 24,5 6 4 21 11 N 1016,7 20 22 0,0
10.08.2017 19:00:00 23,0 7,1 24,7 24,9 24,5 13 7 28 15 N 1016,6 20 32 0,0
10.08.2017 18:00:00 22,9 7,0 24,6 24,6 24,5 14 8 29 15 N 1016,6 20 38 0,0
10.08.2017 17:00:00 23,1 6,8 24,8 24,3 24,6 18 10 29 16 NNE 1016,5 20 39 0,0

tt = Température de l'air
td = dewpoint
tt 5cm = Température de l'air 5cm
tt -20cm = Température de l'air -20cm
tt -100cm = Température de l'air -100cm
ff = Vitesse du vent
fx = gusts
dd = Direction du vent
ppp = reduced air pressure
vv = visibility
sd = Ensoleillement
rr = Quantités de précipitations

stations d'obs. à proximité